279P/La Sagra (2016)

Japanese version
Home page
Updated on December 31, 2016

---------------------------------------------------------------------

* Profile

* Pictures

* Orbital Elements

Epoch 2016 July 31.0 TT = JDT 2457600.5
T 2016 July 14.54916 TT                                 MPCW
q   2.1592089            (2000.0)            P               Q
n   0.14545053     Peri.    5.87658     +0.99047908     +0.13606647
a   3.5809026      Node   346.25012     -0.12961553     +0.87059135
e   0.3970210      Incl.    5.04641     -0.04637905     +0.47281774
P   6.78
From 134 observations 2002 July 11-2016 May 4, mean residual 0".5.

* Magnitudes Graph

        m1 = 15.2 + 5 log d + 10.0 log r

---------------------------------------------------------------------

The orbital elements are published on M.P.E.C. 2016-K18.
The magnitudes graphs are made with Comet for Windows.

---------------------------------------------------------------------

Copyright(C) Seiichi Yoshida (comet@aerith.net). All rights reserved.